TimeMST,TemperatureF,Dew PointF,Humidity,Sea Level PressureIn,VisibilityMPH,Wind Direction,Wind SpeedMPH,Gust SpeedMPH,PrecipitationIn,Events,Conditions,WindDirDegrees,DateUTC
12:00 AM,-31.0,-38.2,68,30.33,15.0,NNW,4.6,-,N/A,,Clear,330,2013-02-03 07:00:00
1:00 AM,-31.0,-38.2,68,30.32,15.0,NNW,4.6,-,N/A,,Clear,330,2013-02-03 08:00:00
2:00 AM,-34.6,-40.0,75,30.31,15.0,North,3.5,-,N/A,,Clear,360,2013-02-03 09:00:00
3:00 AM,-32.8,-40.0,68,30.30,15.0,East,2.3,-,N/A,,Clear,80,2013-02-03 10:00:00
4:00 AM,-36.4,-43.6,67,30.29,15.0,NNW,2.3,-,N/A,,Clear,340,2013-02-03 11:00:00
5:00 AM,-39,-46,51,30.27,15,NNW,4.6,,,Snow,Snow,330,2013-02-03 12:00:00
5:00 AM,-38.2,-45.4,67,30.27,15.0,NNW,4.6,-,N/A,,Ice Crystals,330,2013-02-03 12:00:00
5:42 AM,-38.2,-45.4,67,30.26,15.0,NNE,5.8,-,N/A,,Clear,30,2013-02-03 12:42:00
6:00 AM,-38.2,-45.4,67,30.26,15.0,NE,3.5,-,N/A,,Clear,50,2013-02-03 13:00:00
7:00 AM,-38.2,-45.4,67,30.25,15.0,Calm,Calm,-,N/A,,Clear,0,2013-02-03 14:00:00
8:00 AM,-40.0,-47.2,67,30.24,15.0,NNW,2.3,-,N/A,,Clear,330,2013-02-03 15:00:00
9:00 AM,-38.2,-45.4,67,30.22,15.0,Calm,Calm,-,N/A,,Partly Cloudy,0,2013-02-03 16:00:00
10:00 AM,-38.2,-45.4,67,30.22,15.0,ENE,3.5,-,N/A,,Clear,70,2013-02-03 17:00:00
11:00 AM,-34,-41,51,30.20,15,East,3.5,,,Fog,Light Fog,80,2013-02-03 18:00:00
11:00 AM,-34.6,-41.8,68,30.20,15.0,ENE,4.6,-,N/A,,Partly Cloudy,70,2013-02-03 18:00:00
11:49 AM,-31.0,-38.2,68,30.18,15.0,ENE,3.5,-,N/A,,Ice Crystals,60,2013-02-03 18:49:00
12:00 PM,-29.2,-36.4,68,30.17,15.0,NE,3.5,-,N/A,,Ice Crystals,50,2013-02-03 19:00:00
1:00 PM,-27.4,-32.8,75,30.16,15.0,Calm,Calm,-,N/A,,Ice Crystals,0,2013-02-03 20:00:00
2:00 PM,-23.8,-29.2,76,30.15,15.0,East,4.6,-,N/A,,Ice Crystals,90,2013-02-03 21:00:00
3:00 PM,-22.0,-29.2,69,30.13,15.0,East,3.5,-,N/A,,Ice Crystals,100,2013-02-03 22:00:00
4:00 PM,-22.0,-29.2,69,30.12,15.0,East,4.6,-,N/A,,Ice Crystals,80,2013-02-03 23:00:00
5:00 PM,-24,-30,58,30.09,15,East,4.6,,,Snow,Snow,80,2013-02-04 00:00:00
5:00 PM,-23.8,-31.0,69,30.09,15.0,East,4.6,-,N/A,,Ice Crystals,80,2013-02-04 00:00:00
6:00 PM,-25.6,-31.0,76,30.07,15.0,ENE,9.2,-,N/A,,Partly Cloudy,70,2013-02-04 01:00:00
7:00 PM,-25.6,-31.0,76,30.04,15.0,East,6.9,-,N/A,,Partly Cloudy,90,2013-02-04 02:00:00
8:00 PM,-25.6,-32.8,69,30.02,15.0,East,8.1,-,N/A,,Partly Cloudy,100,2013-02-04 03:00:00
9:00 PM,-25.6,-32.8,69,30.01,15.0,East,5.8,-,N/A,,Scattered Clouds,80,2013-02-04 04:00:00
10:00 PM,-25.6,-31.0,76,29.99,15.0,East,5.8,-,N/A,,Scattered Clouds,80,2013-02-04 05:00:00
11:00 PM,-25,-31,59,29.97,15,East,10.4,,,,Partly Cloudy,80,2013-02-04 06:00:00
11:00 PM,-25.6,-31.0,76,29.97,15.0,East,9.2,-,N/A,,Scattered Clouds,80,2013-02-04 06:00:00